STARLINK-1136 (45089 NORAD) Tracking and Keplerian Element Data

This shows tracking and keplerian element data for the satellite.

Feedback or suggestion? Click here.




ElementValue
Catalog45089
NameSTARLINK-1136
Epoch Orbit371
Epoch Day52.91667824
Epoch Year2020
RAAN118.0788
Inclination52.9965
Eccentricity0.0001315
Argument of Perigee55.4308
Mean Anonmoly73.4682
Mean Motion15.75532018
Decay Rate0.01043676
L11 45089U 20006AX 20052.91667824 .01043676 00000-0 60477-2 0 9999
L22 45089 52.9965 118.0788 0001315 55.4308 73.4682 15.75532018 3710

Live tracking and technical data element details for STARLINK-1136 (NORAD 45089). STARLINK-1136 can be tracked NOW for your location showing map with azimuth and elevation plus other details from your city location.

Track the satellite on the map from your city or location and see movement details for azimuth, elevation, latitude, longitude, range, height, and movement on the map or in text.







IsCatalogInMostPopularTable: catalog: 45089, numindb: 9
Update: records affected: 1



GetName: 45089 STARLINK-1136

Hit Count: updated at: Wed, 26 Feb 2020 17:24:09 GMT